EW3381 Weather Reports


Display with metric or nautical units.
time (UTC)temp
F
wind
direction
speed
MPH
gust
MPH
rain 1hr
in
rain 24hr
in
rain mn
in
humidity
%
barometer
mb
20260506061705 41 6 0.0 0.0 0.00 0.00 0.00 76 1017.1
20260506060653 41 42 0.0 0.0 0.00 0.00 0.00 77 1017.1
20260506050615 40 30 0.0 0.0 0.00 0.00 0.00 77 1017.1
20260506044530 40 30 0.0 0.0 0.00 0.00 0.00 77 1017.1
20260506043514 40 30 0.0 0.0 0.00 0.00 0.00 76 1017.1
20260506042454 40 30 0.0 0.0 0.00 0.00 0.00 76 1017.0
20260506041441 40 30 0.0 0.0 0.00 0.00 0.00 76 1017.1
20260506040438 40 30 0.0 0.0 0.00 0.00 0.00 76 1017.0
20260506034314 40 30 0.0 0.0 0.00 0.00 0.00 76 1017.3
20260506033331 40 30 0.0 0.0 0.00 0.00 0.00 75 1017.3
20260506032340 40 30 0.0 0.0 0.00 0.00 0.00 75 1017.3
20260506031309 41 30 0.0 0.0 0.00 0.00 0.00 74 1017.3
20260506030334 41 30 0.0 0.0 0.00 0.00 0.00 73 1017.4
20260506025305 41 30 0.0 0.0 0.00 0.00 0.00 73 1017.3
20260506024325 41 30 0.0 0.0 0.00 0.00 0.00 73 1017.3
20260506023328 41 30 0.0 0.0 0.00 0.00 0.00 73 1017.3
20260506022340 41 28 0.0 0.0 0.00 0.00 0.00 73 1017.4
20260506021344 42 29 0.0 0.0 0.00 0.00 0.00 73 1017.4
20260506014027 42 29 0.0 0.0 0.00 0.00 0.00 73 1017.6
20260506013012 42 28 0.0 0.0 0.00 0.00 0.00 73 1017.6
20260506012000 42 33 0.0 0.0 0.00 0.00 0.00 73 1017.7
20260506010934 42 33 0.0 0.0 0.00 0.00 0.00 72 1017.7
20260506005912 42 33 0.0 0.0 0.00 0.00 0.00 72 1017.7
20260506004932 42 33 0.0 0.0 0.00 0.00 0.00 72 1017.9
20260506003912 43 33 0.0 0.0 0.00 0.00 0.00 71 1017.8
20260506002904 43 53 0.0 0.0 0.00 0.00 0.00 70 1017.7
20260506001846 43 26 0.0 0.0 0.00 0.00 0.00 70 1017.7
20260506000856 43 26 0.0 0.0 0.00 0.00 0.00 70 1017.8
20260505235852 43 25 0.0 0.0 0.00 0.00 0.00 69 1017.8
20260505234837 43 86 0.0 0.0 0.00 0.00 0.00 69 1017.7
20260505233814 43 44 0.0 0.0 0.00 0.00 0.00 68 1017.7
20260505232822 44 47 0.0 0.0 0.00 0.00 0.00 68 1017.9
20260505231747 44 125 0.0 0.0 0.00 0.00 0.00 68 1017.9
20260505225545 44 27 0.0 0.0 0.00 0.00 0.00 68 1017.9
20260505224532 44 15 0.0 0.0 0.00 0.00 0.00 68 1018.0
20260505222324 44 52 0.0 0.0 0.00 0.00 0.00 68 1018.0
20260505221338 44 85 0.0 0.0 0.00 0.00 0.00 68 1018.0
20260505220355 44 19 0.0 0.0 0.00 0.00 0.00 67 1018.0
20260505215418 44 103 0.0 0.0 0.00 0.00 0.00 67 1018.0
20260505214352 44 354 0.0 0.0 0.00 0.00 0.00 67 1018.0
20260505213331 44 67 0.0 0.0 0.00 0.00 0.00 67 1018.0
20260505212338 44 103 0.0 1.0 0.00 0.00 0.00 66 1018.0
20260505211315 45 64 0.0 1.0 0.00 0.00 0.00 66 1017.9
20260505210311 45 19 0.0 1.0 0.00 0.00 0.00 66 1017.9
20260505205258 45 30 0.0 0.0 0.00 0.00 0.00 66 1017.8
20260505204232 45 84 0.0 0.0 0.00 0.00 0.00 65 1017.7
20260505203230 45 56 0.0 0.0 0.00 0.00 0.00 65 1017.8
20260505202213 45 103 0.0 0.0 0.00 0.00 0.00 64 1017.8
20260505201231 45 15 0.0 2.0 0.00 0.00 0.00 64 1017.7
20260505195101 46 12 0.0 0.0 0.00 0.00 0.00 64 1017.6
20260505194043 46 16 0.0 3.0 0.00 0.00 0.00 64 1017.5
20260505193059 46 65 0.0 1.0 0.00 0.00 0.00 65 1017.4
20260505192027 47 84 0.0 2.0 0.00 0.00 0.00 65 1017.2
20260505191049 47 37 0.0 6.0 0.00 0.00 0.00 64 1017.2
20260505190056 47 353 0.0 3.0 0.00 0.00 0.00 64 1017.0
20260505185038 47 33 0.0 5.0 0.00 0.00 0.00 64 1017.0
20260505184026 47 27 0.0 2.0 0.00 0.00 0.00 64 1017.0
20260505182959 48 75 0.0 7.0 0.00 0.00 0.00 63 1016.9
20260505181941 48 78 0.0 7.0 0.00 0.00 0.00 62 1016.9
20260505180931 48 337 0.0 9.0 0.00 0.00 0.00 62 1016.8
20260505175930 49 295 0.0 9.0 0.00 0.00 0.00 62 1016.8
20260505173806 49 356 0.0 8.0 0.00 0.00 0.00 62 1016.9
20260505172733 50 25 0.0 8.0 0.00 0.00 0.00 61 1016.8
20260505171715 50 8 0.0 7.0 0.00 0.00 0.00 61 1016.8
20260505165607 51 30 0.0 5.0 0.00 0.00 0.00 62 1016.7
20260505164551 52 46 0.0 5.0 0.00 0.00 0.00 62 1016.6
20260505162505 52 51 0.0 6.0 0.00 0.00 0.00 62 1016.4
20260505160343 53 23 0.0 7.0 0.00 0.00 0.00 59 1016.5
20260505153350 54 8 0.0 7.0 0.00 0.00 0.00 57 1016.4
20260505152333 54 105 1.0 8.0 0.00 0.00 0.00 60 1016.4
20260505151333 55 350 1.0 9.0 0.00 0.00 0.00 56 1016.5
20260505150310 54 98 0.0 9.0 0.00 0.00 0.00 59 1016.5
20260505124754 56 30 0.0 0.0 0.00 0.00 0.00 55 1015.8
20260505123748 57 37 0.0 4.0 0.00 0.00 0.00 47 1015.8
20260505122751 59 117 0.0 0.0 0.00 0.00 0.00 39 1015.8
20260505121743 59 103 0.0 0.0 0.00 0.00 0.00 40 1015.9
20260505120757 58 34 0.0 2.0 0.00 0.00 0.00 48 1016.0
20260505115747 54 23 0.0 0.0 0.00 0.00 0.00 54 1016.0
20260505112513 53 15 0.0 4.0 0.00 0.00 0.00 56 1016.0
20260505110343 53 20 0.0 7.0 0.00 0.00 0.00 58 1016.0
20260505101306 55 13 0.0 0.0 0.00 0.00 0.00 58 1015.9
20260505100242 53 11 0.0 4.0 0.00 0.00 0.00 61 1015.9
20260505094056 52 1 0.0 4.0 0.00 0.00 0.00 64 1015.8
20260505093039 51 23 0.0 4.0 0.00 0.00 0.00 64 1015.8
20260505092046 50 6 0.0 5.0 0.00 0.00 0.00 67 1015.7
20260505091049 49 346 0.0 5.0 0.00 0.00 0.00 67 1015.7
20260505090020 49 41 0.0 3.0 0.00 0.00 0.00 71 1015.7
20260505083809 49 0 0.0 2.0 0.00 0.00 0.00 74 1015.7
20260505080457 50 15 0.0 3.0 0.00 0.00 0.00 72 1015.4
20260505075452 51 345 0.0 2.0 0.00 0.00 0.00 72 1015.4
20260505074424 50 357 0.0 0.0 0.00 0.00 0.00 72 1015.4
20260505073403 50 358 0.0 0.0 0.00 0.00 0.00 75 1015.3
20260505072406 49 311 0.0 0.0 0.00 0.00 0.00 77 1015.2
20260505071427 48 297 0.0 0.0 0.00 0.00 0.00 80 1015.3
20260505070430 48 337 0.0 0.0 0.00 0.00 0.00 82 1015.3
20260505065404 47 288 0.0 0.0 0.00 0.00 0.00 83 1015.3
20260505064420 47 299 0.0 0.0 0.00 0.00 0.00 84 1015.3
20260505063406 47 313 0.0 0.0 0.00 0.00 0.00 84 1015.3
20260505062412 47 314 0.0 0.0 0.00 0.00 0.00 85 1015.2